Terminal Aerodrome Forecast
Issued by NWS Jackson, MS

Home | Current Version | Previous Version | Text Only | Print | Product List | Glossary On
Versions: 1 2 3 4 5 6 7 8 9 10 11 12 13 14 15 16 17 18
000
FTUS44 KJAN 162300
TAFHBG
TAF
KHBG 162331Z 1700/1724 00000KT P6SM SCT250
     FM171100 10008KT 5SM BR BKN007
     FM171400 11010KT P6SM BKN020
     FM171700 12008KT P6SM BKN035=

USA.gov is the U.S. government's official web portal to all federal, state and local government web resources and services.